Weather History for KFSO - December, 2013

Change the Weather History Date:

Wednesday, December 25, 2013

  Actual Average (KPBG) Record (KPBG)
Temperature  
Mean Temperature 4 °F 21 °F  
Max Temperature 12 °F 30 °F 59 °F (1964)
Min Temperature -4 °F 12 °F -20 °F (1980)
Degree Days  
Heating Degree Days 62 44  
Month to date heating degree days 983  
Since 1 July heating degree days 2617  
Cooling Degree Days 0 0  
Month to date cooling degree days 0  
Year to date cooling degree days 346  
Moisture  
Dew Point -1 °F    
Average Humidity 75    
Maximum Humidity 81    
Minimum Humidity 65    
Precipitation  
Precipitation 0.00 in - 1.60 in (1978)
Month to date precipitation  
Year to date precipitation  
Sea Level Pressure  
Sea Level Pressure 30.48 in    
Wind  
Wind Speed 2 mph (ESE)    
Max Wind Speed 7 mph    
Max Gust Speed -    
Visibility 10 miles    
Events      
T = Trace of Precipitation, MM = Missing Value Source: NWS Daily Summary

Daily Weather History Graph

Daily Weather History Graph

Search for Another Location

Airport or City:

Trip Planner

Search our weather history database for the weather conditions in past years. The results will help you decide how hot, cold, wet, or windy it might be!

Date:

Astronomy

Dec. 25, 2013 Rise Set
Actual Time 7:29 AM EST 4:16 PM EST
Civil Twilight 6:55 AM EST 4:50 PM EST
Nautical Twilight 6:18 AM EST 5:27 PM EST
Astronomical Twilight 5:42 AM EST 6:02 PM EST
Moon No Moon Rise 11:32 AM EST (12/25)
Length of Visible Light 9h 54m
Length of Day
8h 47m
Waning Gibbous, 49% of the Moon is Illuminated
Dec 25
Waning Gibbous
Jan 1
New
Jan 7
First Quarter
Jan 15
Full
Jan 24
Last Quarter

Hourly Weather History & Observations

Time (EST) Temp. Windchill Dew Point Humidity Pressure Visibility Wind Dir Wind Speed Gust Speed Precip Events Conditions
12:15 AM 5.0 °F -5.6 °F -1.3 °F 75% 30.37 in 10.0 mi West 5.8 mph - N/A   Overcast
12:35 AM 5.0 °F -4.1 °F -1.3 °F 75% 30.37 in 10.0 mi West 4.6 mph - N/A   Overcast
12:55 AM 4.8 °F -4.3 °F -1.7 °F 75% 30.37 in - West 4.6 mph - N/A   Overcast
1:15 AM 4.3 °F -4.9 °F -2.2 °F 75% 30.38 in - West 4.6 mph - N/A   Overcast
1:35 AM 3.9 °F - -2.4 °F 75% 30.39 in - Calm Calm - N/A   Overcast
1:55 AM 3.7 °F -5.5 °F -2.7 °F 74% 30.40 in - West 4.6 mph - N/A   Overcast
2:15 AM 3.2 °F -4.2 °F -3.1 °F 75% 30.41 in - West 3.5 mph - N/A   Scattered Clouds
2:35 AM 3.2 °F -6.2 °F -3.1 °F 75% 30.42 in 10.0 mi West 4.6 mph - N/A   Clear
2:55 AM 3.2 °F - -3.1 °F 75% 30.43 in - Calm Calm - N/A   Clear
3:15 AM 2.8 °F - -3.5 °F 75% 30.44 in - Calm Calm - N/A   Clear
3:35 AM 2.3 °F - -4.0 °F 75% 30.45 in - Calm Calm - N/A   Clear
3:55 AM 2.1 °F - -4.4 °F 74% 30.46 in 10.0 mi Calm Calm - N/A   Clear
4:15 AM 1.9 °F - -4.5 °F 74% 30.46 in 10.0 mi Calm Calm - N/A   Clear
4:35 AM 1.4 °F - -5.1 °F 74% 30.47 in 10.0 mi Calm Calm - N/A   Clear
4:55 AM 1.0 °F - -5.3 °F 75% 30.47 in 10.0 mi Calm Calm - N/A   Clear
5:15 AM 0.9 °F - -5.4 °F 75% 30.48 in 10.0 mi Calm Calm - N/A   Clear
5:35 AM 0.5 °F - -5.8 °F 75% 30.49 in 10.0 mi Calm Calm - N/A   Clear
5:55 AM 0.5 °F - -5.8 °F 75% 30.50 in 10.0 mi Calm Calm - N/A   Clear
6:15 AM 0.5 °F - -5.8 °F 75% 30.51 in 10.0 mi Calm Calm - N/A   Clear
6:35 AM -1.1 °F - -7.1 °F 76% 30.51 in 10.0 mi Calm Calm - N/A   Clear
6:55 AM -1.8 °F - -7.8 °F 76% 30.53 in - Calm Calm - N/A   Clear
7:15 AM -1.8 °F - -7.2 °F 78% 30.54 in 10.0 mi Calm Calm - N/A   Clear
7:35 AM -4.2 °F - -10.1 °F 76% 30.53 in 10.0 mi Calm Calm - N/A   Clear
7:55 AM -4.2 °F - -9.8 °F 77% 30.54 in 10.0 mi Calm Calm - N/A   Clear
8:15 AM -1.8 °F - -7.2 °F 78% 30.55 in 10.0 mi Calm Calm - N/A   Clear
8:35 AM -1.7 °F - -7.2 °F 77% 30.55 in - Calm Calm - N/A   Clear
8:55 AM 0.5 °F -7.3 °F -5.8 °F 75% 30.55 in 10.0 mi East 3.5 mph - N/A   Clear
9:15 AM 2.8 °F - -4.0 °F 73% 30.57 in 10.0 mi Calm Calm - N/A   Clear
9:35 AM 3.2 °F - -4.5 °F 70% 30.57 in 10.0 mi Calm Calm - N/A   Clear
9:55 AM 3.2 °F - -4.9 °F 69% 30.58 in 10.0 mi Calm Calm - N/A   Clear
10:15 AM 5.0 °F - -3.5 °F 68% 30.57 in 10.0 mi Calm Calm - N/A   Clear
10:35 AM 6.1 °F -2.8 °F -2.4 °F 68% 30.56 in 10.0 mi ENE 4.6 mph - N/A   Clear
10:55 AM 5.0 °F -6.9 °F -3.3 °F 69% 30.55 in 10.0 mi East 6.9 mph - N/A   Clear
11:15 AM 6.6 °F -2.2 °F -1.5 °F 69% 30.55 in 10.0 mi ENE 4.6 mph - N/A   Clear
11:35 AM 8.2 °F - -0.4 °F 68% 30.56 in 10.0 mi Calm Calm - N/A   Clear
11:55 AM 10.8 °F - 1.4 °F 66% 30.56 in 10.0 mi Calm Calm - N/A   Clear
12:15 PM 10.8 °F - 1.0 °F 65% 30.55 in 10.0 mi Calm Calm - N/A   Clear
12:35 PM 10.8 °F - 1.2 °F 65% 30.54 in 10.0 mi Calm Calm - N/A   Clear
12:55 PM 10.8 °F - 1.6 °F 67% 30.53 in 10.0 mi Calm Calm - N/A   Clear
1:15 PM 10.8 °F - 1.4 °F 66% 30.53 in 10.0 mi Calm Calm - N/A   Clear
1:35 PM 10.2 °F - 2.1 °F 70% 30.53 in 10.0 mi Calm Calm - N/A   Clear
1:55 PM 10.8 °F - 3.6 °F 73% 30.51 in 10.0 mi Calm Calm - N/A   Clear
2:15 PM 10.8 °F - 3.9 °F 74% 30.51 in 10.0 mi Calm Calm - N/A   Clear
2:35 PM 11.1 °F - 4.1 °F 73% 30.51 in 10.0 mi Calm Calm - N/A   Clear
2:55 PM 10.8 °F - 3.7 °F 73% 30.51 in 10.0 mi Calm Calm - N/A   Clear
3:15 PM 8.2 °F - 1.4 °F 74% 30.51 in 10.0 mi Calm Calm - N/A   Clear
3:35 PM 7.0 °F - 0.9 °F 76% 30.52 in 10.0 mi Calm Calm - N/A   Clear
3:55 PM 5.0 °F - -0.6 °F 78% 30.51 in - Calm Calm - N/A   Clear
4:15 PM 4.6 °F - -0.9 °F 78% 30.51 in 10.0 mi Calm Calm - N/A   Clear
4:35 PM 4.5 °F - -1.1 °F 78% 30.51 in - Calm Calm - N/A   Clear
4:55 PM 3.7 °F - -1.5 °F 79% 30.50 in - Calm Calm - N/A   Clear
5:15 PM 3.7 °F - -1.3 °F 80% 30.49 in - Calm Calm - N/A   Clear
5:35 PM 3.4 °F - -1.7 °F 80% 30.48 in - Calm Calm - N/A   Clear
5:55 PM 5.2 °F - 0.5 °F 81% 30.48 in - Calm Calm - N/A   Clear
6:15 PM 4.3 °F -2.9 °F -1.1 °F 78% 30.47 in 10.0 mi East 3.5 mph - N/A   Clear
6:35 PM 4.1 °F - -0.6 °F 81% 30.47 in 10.0 mi Calm Calm - N/A   Mostly Cloudy
6:55 PM 7.2 °F - 2.1 °F 80% 30.47 in - Calm Calm - N/A   Mostly Cloudy
7:15 PM 8.2 °F -0.3 °F 3.2 °F 80% 30.46 in - ESE 4.6 mph - N/A   Mostly Cloudy
7:35 PM 8.2 °F - 3.0 °F 79% 30.46 in - Calm Calm - N/A   Overcast
7:55 PM 8.6 °F 2.0 °F 3.4 °F 79% 30.45 in - ESE 3.5 mph - N/A   Overcast
8:15 PM 9.5 °F 3.0 °F 4.3 °F 79% 30.45 in - East 3.5 mph - N/A   Mostly Cloudy
8:35 PM 10.2 °F - 4.8 °F 79% 30.44 in - Calm Calm - N/A   Mostly Cloudy
8:55 PM 10.8 °F 4.5 °F 5.5 °F 79% 30.43 in - East 3.5 mph - N/A   Overcast
9:15 PM 10.8 °F 4.5 °F 5.5 °F 79% 30.42 in - ESE 3.5 mph - N/A   Overcast
9:35 PM 10.8 °F - 5.4 °F 79% 30.42 in - Calm Calm - N/A   Overcast
9:55 PM 10.8 °F 0.0 °F 5.0 °F 78% 30.40 in - East 6.9 mph - N/A   Overcast
10:15 PM 10.8 °F 2.7 °F 5.0 °F 78% 30.39 in - ESE 4.6 mph - N/A   Overcast
10:35 PM 10.8 °F 2.7 °F 5.0 °F 78% 30.38 in - ESE 4.6 mph - N/A   Overcast
10:55 PM 10.8 °F 2.7 °F 5.0 °F 78% 30.37 in - SE 4.6 mph - N/A   Overcast
11:15 PM 10.8 °F 4.5 °F 5.0 °F 78% 30.36 in - SE 3.5 mph - N/A   Overcast
11:35 PM 11.7 °F 3.7 °F 5.9 °F 78% 30.35 in - SE 4.6 mph - N/A   Overcast
11:55 PM 12.4 °F 6.3 °F 6.6 °F 78% 30.34 in - SE 3.5 mph - N/A   Overcast